Weather in Olya

Russia / Astrakhan Oblast     45°47′12″N   47°32′24″E
temp.,
°C
wind,
m/s
gust,
m/s
humid.,
%
clouds,
%
prec.,
mm/h
press.,
hPa
HPBL,
m
23 january, sat
sat2301:00+1w358178 0.0 102984
04:00+1w237889 0.0 102845
07:00−1nw228975 0.0 103022
10:00+1ne228649 0.0 103069
13:00+5se236721 0.0 1030318
16:00+5se456611 0.0 1029289
19:00+2ese448069 0.0 102886
22:00+1ese488362 0.0 1028149
24 january, sun
sun2401:00+1e5118715 0.0 1027229
04:00+2e5108624 0.0 1026264
07:00+3ese71378100 0.1 1026386
10:00+4ese91479100 0.1 1026577
13:00+4se8117890 0.0 1025656
16:00+4se7107689 0.0 1024558
19:00+2ese7138533 0.0 1024310
22:00+1ese6118317 0.0 1024263
25 january, mon
mon2501:000ese5108573 0.0 1023195
04:00+1ese5109087 0.0 1023202
07:00+1ese61190100 0.0 1023221
10:00+2ese71181100 0.0 1024310
13:00+5se8117597 0.0 1023524
16:00+4se8117695 0.0 1023459
19:00+2ese71282100 0.0 1022335
22:00+1ese5118380 0.0 1022246
26 january, tue
tue2601:000e511780 0.0 1021214
04:000ese6128112 0.0 1021221
07:00+1ese6118666 0.0 1021243
10:00+3ese8137983 0.0 1021401
13:00+5se8117237 0.0 1021470
16:00+4se8117753 0.0 1020395
19:00+2se71282100 0.0 1020341
22:00+2se51082100 0.0 1020254
27 january, wed
wed2701:00+1ese4980100 0.0 1020151
04:000e4783100 0.0 1020141
07:00+1e51184100 0.0 1019223
10:00+2ese71375100 0.0 1019373
13:00+5ese9136880 0.0 1017472
16:00+4ese9137185 0.0 1015473
19:00+3ese81472100 0.0 1014461
22:00+3ese71474100 0.0 1012379